AAL152 KDAY-KMOB

Flight info

Callsign AAL152
Flight time 1h 55m
Altitude 20000
Route TRIVO CVG PXV BETIE GOOGY PAYTN
Aircraft B77W/H-SDE1E2E3FGHIJ2J3J4J5M1RWXY/LB1D1

Departure

Time 2026-05-07 04:52
Airport James M. Cox Dayton International Airport (KDAY)

Arrival

Time 2026-05-07 06:47
Airport Mobile Regional Airport (KMOB)
Time Latitude Longitude Altitude Speed Heading
2026-05-07 04:22 39.90123 -84.21981 1013 ft 0 kts 168°
2026-05-07 04:38 39.90135 -84.21985 1013 ft 2 kts 159°
2026-05-07 04:38 39.90149 -84.21993 1013 ft 2 kts 147°
2026-05-07 04:38 39.90161 -84.22005 1013 ft 2 kts 137°
2026-05-07 04:39 39.90171 -84.22018 1013 ft 2 kts 127°
2026-05-07 04:39 39.90180 -84.22035 1013 ft 2 kts 117°
2026-05-07 04:39 39.90186 -84.22053 1013 ft 2 kts 107°
2026-05-07 04:39 39.90189 -84.22071 1013 ft 2 kts 97°
2026-05-07 04:40 39.90190 -84.22091 1013 ft 2 kts 86°
2026-05-07 04:40 39.90189 -84.22110 1013 ft 2 kts 77°
2026-05-07 04:40 39.90184 -84.22128 1013 ft 2 kts 66°
2026-05-07 04:40 39.90178 -84.22144 1013 ft 0 kts 57°
2026-05-07 04:41 39.90176 -84.22147 1013 ft 0 kts 56°
2026-05-07 04:43 39.90180 -84.22139 1013 ft 2 kts 63°
2026-05-07 04:44 39.90174 -84.22102 1013 ft 6 kts 130°
2026-05-07 04:44 39.90139 -84.22053 1013 ft 9 kts 94°
2026-05-07 04:44 39.90179 -84.21970 1013 ft 9 kts 49°
2026-05-07 04:44 39.90208 -84.21885 1015 ft 11 kts 90°
2026-05-07 04:45 39.90165 -84.21787 1016 ft 14 kts 141°
2026-05-07 04:45 39.90076 -84.21703 1016 ft 11 kts 138°
2026-05-07 04:45 39.90027 -84.21688 1016 ft 9 kts 221°
2026-05-07 04:45 39.90048 -84.21752 1016 ft 7 kts 350°
2026-05-07 04:46 39.90090 -84.21709 1016 ft 9 kts 58°
2026-05-07 04:46 39.90132 -84.21619 1016 ft 13 kts 54°
2026-05-07 04:46 39.90198 -84.21502 1015 ft 18 kts 56°
2026-05-07 04:46 39.90270 -84.21371 1014 ft 18 kts 48°
2026-05-07 04:47 39.90376 -84.21306 1013 ft 17 kts
2026-05-07 04:47 39.90437 -84.21306 1013 ft 9 kts 360°
2026-05-07 04:47 39.90517 -84.21307 1013 ft 13 kts 358°
2026-05-07 04:47 39.90625 -84.21313 1013 ft 17 kts 358°
2026-05-07 04:48 39.90763 -84.21320 1010 ft 22 kts 358°
2026-05-07 04:48 39.90883 -84.21318 1009 ft 12 kts
2026-05-07 04:48 39.90977 -84.21319 1009 ft 13 kts 359°
2026-05-07 04:48 39.91076 -84.21327 1008 ft 14 kts 351°
2026-05-07 04:49 39.91118 -84.21346 1007 ft 0 kts 331°
2026-05-07 04:49 39.91126 -84.21352 1007 ft 3 kts 330°
2026-05-07 04:49 39.91161 -84.21379 1007 ft 8 kts 326°
2026-05-07 04:49 39.91183 -84.21435 1008 ft 7 kts 271°
2026-05-07 04:50 39.91167 -84.21489 1009 ft 4 kts 236°
2026-05-07 04:50 39.91166 -84.21491 1009 ft 0 kts 236°
2026-05-07 04:50 39.91166 -84.21493 1009 ft 1 kts 236°
2026-05-07 04:50 39.91108 -84.21603 1009 ft 37 kts 236°
2026-05-07 04:51 39.90854 -84.22074 1009 ft 92 kts 236°
2026-05-07 04:51 39.90387 -84.22948 1006 ft 143 kts 234°
2026-05-07 04:51 39.89736 -84.24198 1020 ft 184 kts 237°
2026-05-07 04:51 39.89021 -84.25578 1525 ft 184 kts 235°
2026-05-07 04:52 39.88255 -84.26939 2056 ft 193 kts 234°
2026-05-07 04:52 39.87468 -84.28361 2612 ft 194 kts 237°
2026-05-07 04:52 39.86662 -84.29804 3008 ft 211 kts 233°
2026-05-07 04:52 39.85566 -84.31326 3111 ft 247 kts 231°
2026-05-07 04:53 39.84407 -84.33109 3502 ft 262 kts 234°
2026-05-07 04:53 39.83266 -84.34934 4125 ft 264 kts 234°
2026-05-07 04:53 39.82135 -84.36792 4839 ft 262 kts 235°
2026-05-07 04:53 39.81019 -84.38644 5503 ft 262 kts 235°
2026-05-07 04:54 39.79907 -84.40498 6125 ft 262 kts 235°
2026-05-07 04:54 39.78789 -84.42374 6741 ft 263 kts 236°
2026-05-07 04:54 39.77671 -84.44251 7323 ft 264 kts 235°
2026-05-07 04:54 39.76553 -84.46124 7910 ft 265 kts 236°
2026-05-07 04:55 39.75424 -84.48015 8553 ft 263 kts 236°
2026-05-07 04:55 39.74319 -84.49870 9119 ft 263 kts 236°
2026-05-07 04:55 39.73201 -84.51750 9683 ft 264 kts 236°
2026-05-07 04:55 39.72083 -84.53619 10150 ft 265 kts 237°
2026-05-07 04:56 39.70932 -84.55549 10383 ft 276 kts 237°
2026-05-07 04:56 39.69730 -84.57575 10403 ft 293 kts 237°
2026-05-07 04:56 39.68445 -84.59729 10438 ft 309 kts 236°
2026-05-07 04:56 39.67098 -84.61982 10464 ft 324 kts 236°
2026-05-07 04:57 39.65686 -84.64342 10480 ft 338 kts 236°
2026-05-07 04:57 39.64207 -84.66753 10602 ft 348 kts 232°
2026-05-07 04:57 39.62357 -84.68784 11042 ft 356 kts 217°
2026-05-07 04:57 39.60059 -84.70080 11500 ft 365 kts 201°
2026-05-07 04:58 39.57487 -84.70502 11953 ft 376 kts 186°
2026-05-07 04:58 39.54882 -84.70384 12243 ft 380 kts 186°
2026-05-07 04:58 39.52228 -84.70372 12594 ft 381 kts 187°
2026-05-07 04:58 39.49564 -84.70343 13028 ft 381 kts 187°
2026-05-07 04:59 39.46940 -84.70340 13395 ft 382 kts 188°
2026-05-07 04:59 39.44686 -84.70335 13766 ft 382 kts 188°
2026-05-07 04:59 39.42259 -84.70337 14088 ft 384 kts 188°
2026-05-07 05:00 39.39588 -84.70335 14464 ft 385 kts 189°
2026-05-07 05:00 39.36916 -84.70330 14814 ft 386 kts 189°
2026-05-07 05:00 39.34206 -84.70337 15181 ft 387 kts 189°
2026-05-07 05:00 39.31535 -84.70332 15619 ft 386 kts 189°
2026-05-07 05:01 39.28843 -84.70330 16040 ft 385 kts 190°
2026-05-07 05:01 39.26165 -84.70333 16322 ft 387 kts 190°
2026-05-07 05:01 39.23454 -84.70332 16584 ft 391 kts 191°
2026-05-07 05:01 39.20758 -84.70335 16905 ft 391 kts 191°
2026-05-07 05:02 39.18042 -84.70332 17415 ft 387 kts 191°
2026-05-07 05:02 39.15343 -84.70328 17715 ft 389 kts 191°
2026-05-07 05:02 39.12637 -84.70336 17891 ft 393 kts 192°
2026-05-07 05:02 39.09930 -84.70392 18277 ft 384 kts 195°
2026-05-07 05:03 39.07352 -84.70943 18666 ft 368 kts 206°
2026-05-07 05:03 39.05014 -84.72089 18908 ft 356 kts 216°
2026-05-07 05:03 39.02965 -84.73789 19246 ft 345 kts 225°
2026-05-07 05:03 39.01176 -84.75801 19479 ft 340 kts 233°
2026-05-07 05:04 38.99758 -84.78168 19796 ft 334 kts 240°
2026-05-07 05:04 38.98570 -84.80718 20004 ft 331 kts 243°
2026-05-07 05:04 38.97478 -84.83340 20035 ft 330 kts 245°
2026-05-07 05:04 38.96476 -84.85967 20048 ft 334 kts 247°
2026-05-07 05:05 38.95486 -84.88657 20033 ft 332 kts 247°
2026-05-07 05:05 38.94540 -84.91339 20040 ft 332 kts 247°
2026-05-07 05:05 38.93603 -84.94023 20028 ft 332 kts 248°
2026-05-07 05:05 38.92657 -84.96745 20042 ft 335 kts 248°
2026-05-07 05:06 38.91713 -84.99507 20039 ft 334 kts 248°
2026-05-07 05:06 38.90776 -85.02228 20017 ft 332 kts 248°
2026-05-07 05:06 38.89864 -85.04906 20022 ft 334 kts 248°
2026-05-07 05:06 38.88929 -85.07632 20033 ft 332 kts 248°
2026-05-07 05:07 38.88000 -85.10365 20023 ft 333 kts 248°
2026-05-07 05:07 38.87070 -85.13064 20032 ft 335 kts 248°
2026-05-07 05:07 38.86133 -85.15803 20027 ft 333 kts 248°
2026-05-07 05:07 38.85201 -85.18519 20025 ft 334 kts 248°
2026-05-07 05:08 38.84261 -85.21249 20027 ft 334 kts 248°
2026-05-07 05:08 38.83329 -85.23975 20030 ft 335 kts 248°
2026-05-07 05:08 38.82396 -85.26687 20027 ft 334 kts 248°
2026-05-07 05:08 38.81461 -85.29395 20029 ft 333 kts 248°
2026-05-07 05:09 38.80523 -85.32121 20032 ft 333 kts 248°
2026-05-07 05:09 38.79590 -85.34839 20035 ft 333 kts 248°
2026-05-07 05:09 38.78649 -85.37547 20038 ft 336 kts 248°
2026-05-07 05:09 38.77709 -85.40280 20038 ft 335 kts 248°
2026-05-07 05:10 38.76761 -85.43014 20042 ft 334 kts 248°
2026-05-07 05:10 38.75832 -85.45714 20044 ft 336 kts 248°
2026-05-07 05:10 38.74882 -85.48430 20040 ft 336 kts 248°
2026-05-07 05:10 38.73941 -85.51175 20037 ft 334 kts 248°
2026-05-07 05:11 38.72989 -85.53892 20036 ft 335 kts 248°
2026-05-07 05:11 38.72057 -85.56586 20040 ft 333 kts 248°
2026-05-07 05:11 38.71111 -85.59309 20038 ft 335 kts 248°
2026-05-07 05:11 38.70164 -85.62029 20043 ft 338 kts 248°
2026-05-07 05:12 38.69204 -85.64784 20031 ft 334 kts 248°
2026-05-07 05:12 38.68257 -85.67512 20050 ft 335 kts 248°
2026-05-07 05:12 38.67300 -85.70223 20048 ft 337 kts 248°
2026-05-07 05:12 38.66350 -85.72974 20041 ft 336 kts 248°
2026-05-07 05:13 38.65395 -85.75693 20043 ft 336 kts 248°
2026-05-07 05:13 38.64439 -85.78413 20035 ft 336 kts 247°
2026-05-07 05:13 38.63496 -85.81130 20033 ft 334 kts 248°
2026-05-07 05:13 38.62537 -85.83855 20044 ft 339 kts 248°
2026-05-07 05:14 38.61575 -85.86588 20027 ft 333 kts 248°
2026-05-07 05:14 38.60635 -85.89275 20043 ft 338 kts 248°
2026-05-07 05:14 38.59660 -85.92042 20048 ft 340 kts 248°
2026-05-07 05:14 38.58706 -85.94755 20031 ft 338 kts 248°
2026-05-07 05:15 38.57737 -85.97510 20033 ft 339 kts 248°
2026-05-07 05:15 38.56773 -86.00236 20038 ft 338 kts 247°
2026-05-07 05:15 38.55815 -86.02952 20033 ft 339 kts 248°
2026-05-07 05:15 38.54861 -86.05657 20035 ft 338 kts 248°
2026-05-07 05:16 38.53881 -86.08424 20031 ft 338 kts 248°
2026-05-07 05:16 38.52922 -86.11142 20039 ft 338 kts 248°
2026-05-07 05:16 38.51961 -86.13858 20026 ft 338 kts 247°
2026-05-07 05:16 38.50995 -86.16582 20034 ft 338 kts 248°
2026-05-07 05:17 38.50021 -86.19312 20035 ft 338 kts 247°
2026-05-07 05:17 38.49056 -86.22050 20027 ft 338 kts 248°
2026-05-07 05:17 38.48071 -86.24796 20030 ft 340 kts 248°
2026-05-07 05:17 38.47116 -86.27493 20028 ft 339 kts 248°
2026-05-07 05:18 38.46137 -86.30244 20030 ft 339 kts 247°
2026-05-07 05:18 38.45177 -86.32935 20021 ft 335 kts 247°
2026-05-07 05:18 38.44193 -86.35690 20032 ft 340 kts 247°
2026-05-07 05:18 38.43230 -86.38400 20038 ft 339 kts 247°
2026-05-07 05:19 38.42251 -86.41128 20020 ft 339 kts 248°
2026-05-07 05:19 38.41270 -86.43855 20034 ft 339 kts 247°
2026-05-07 05:19 38.40300 -86.46587 20032 ft 337 kts 248°
2026-05-07 05:19 38.39308 -86.49338 20031 ft 337 kts 248°
2026-05-07 05:20 38.38339 -86.52044 20028 ft 339 kts 248°
2026-05-07 05:20 38.37368 -86.54753 20041 ft 339 kts 247°
2026-05-07 05:20 38.36379 -86.57500 20028 ft 340 kts 248°
2026-05-07 05:20 38.35400 -86.60223 20028 ft 338 kts 248°
2026-05-07 05:21 38.34415 -86.62950 20034 ft 341 kts 248°
2026-05-07 05:21 38.32463 -86.68365 20052 ft 339 kts 247°
2026-05-07 05:21 38.31470 -86.71123 20041 ft 340 kts 247°
2026-05-07 05:22 38.30490 -86.73832 20062 ft 340 kts 246°
2026-05-07 05:22 38.29503 -86.76561 20040 ft 341 kts 247°
2026-05-07 05:22 38.28519 -86.79283 20046 ft 338 kts 247°
2026-05-07 05:22 38.27543 -86.81973 20038 ft 338 kts 246°
2026-05-07 05:23 38.26550 -86.84708 20040 ft 338 kts 246°
2026-05-07 05:23 38.25559 -86.87433 20044 ft 339 kts 246°
2026-05-07 05:23 38.24572 -86.90153 20050 ft 339 kts 247°
2026-05-07 05:23 38.23593 -86.92841 20050 ft 337 kts 247°
2026-05-07 05:24 38.22609 -86.95543 20055 ft 340 kts 247°
2026-05-07 05:24 38.21624 -86.98255 20052 ft 336 kts 247°
2026-05-07 05:24 38.20638 -87.00948 20056 ft 339 kts 247°
2026-05-07 05:24 38.19649 -87.03679 20053 ft 338 kts 247°
2026-05-07 05:25 38.18648 -87.06404 20059 ft 339 kts 246°
2026-05-07 05:25 38.17657 -87.09115 20057 ft 338 kts 247°
2026-05-07 05:25 38.16663 -87.11824 20049 ft 340 kts 246°
2026-05-07 05:25 38.15674 -87.14535 20034 ft 337 kts 247°
2026-05-07 05:26 38.14674 -87.17242 20041 ft 339 kts 246°
2026-05-07 05:26 38.13691 -87.19940 20048 ft 341 kts 247°
2026-05-07 05:26 38.12694 -87.22648 20028 ft 337 kts 247°
2026-05-07 05:26 38.11707 -87.25334 20055 ft 339 kts 247°
2026-05-07 05:27 38.10699 -87.28076 20028 ft 339 kts 247°
2026-05-07 05:27 38.09706 -87.30763 20045 ft 339 kts 247°
2026-05-07 05:27 38.08703 -87.33486 20045 ft 337 kts 246°
2026-05-07 05:27 38.07719 -87.36164 20037 ft 340 kts 246°
2026-05-07 05:28 38.06716 -87.38877 20041 ft 337 kts 247°
2026-05-07 05:28 38.05721 -87.41560 20061 ft 339 kts 246°
2026-05-07 05:28 38.04723 -87.44265 20043 ft 338 kts 246°
2026-05-07 05:28 38.03724 -87.46958 20053 ft 339 kts 246°
2026-05-07 05:29 38.02712 -87.49679 20048 ft 336 kts 247°
2026-05-07 05:29 38.01722 -87.52355 20057 ft 339 kts 246°
2026-05-07 05:29 38.00717 -87.55076 20055 ft 341 kts 246°
2026-05-07 05:29 37.99703 -87.57797 20052 ft 342 kts 246°
2026-05-07 05:30 37.98678 -87.60539 20054 ft 346 kts 247°
2026-05-07 05:30 37.97660 -87.63280 20046 ft 342 kts 246°
2026-05-07 05:30 37.96648 -87.65996 20062 ft 346 kts 246°
2026-05-07 05:30 37.95610 -87.68753 20064 ft 346 kts 245°
2026-05-07 05:31 37.94328 -87.71285 20061 ft 341 kts 234°
2026-05-07 05:31 37.92623 -87.73418 20076 ft 351 kts 225°
2026-05-07 05:31 37.90559 -87.75075 20058 ft 361 kts 215°
2026-05-07 05:31 37.88157 -87.76212 20078 ft 372 kts 205°
2026-05-07 05:32 37.85553 -87.76736 20067 ft 386 kts 196°
2026-05-07 05:32 37.82853 -87.76952 20084 ft 386 kts 195°
2026-05-07 05:32 37.80162 -87.77205 20073 ft 392 kts 195°
2026-05-07 05:32 37.77460 -87.77422 20075 ft 390 kts 195°
2026-05-07 05:33 37.74784 -87.77639 20064 ft 385 kts 195°
2026-05-07 05:33 37.72086 -87.77857 20079 ft 389 kts 195°
2026-05-07 05:33 37.69355 -87.78073 20075 ft 389 kts 195°
2026-05-07 05:33 37.66680 -87.78278 20066 ft 391 kts 195°
2026-05-07 05:34 37.63969 -87.78490 20056 ft 385 kts 194°
2026-05-07 05:34 37.61291 -87.78696 20059 ft 390 kts 195°
2026-05-07 05:34 37.58558 -87.78915 20066 ft 388 kts 194°
2026-05-07 05:34 37.55877 -87.79118 20056 ft 387 kts 195°
2026-05-07 05:35 37.53152 -87.79330 20061 ft 392 kts 195°
2026-05-07 05:35 37.50457 -87.79541 20062 ft 392 kts 194°
2026-05-07 05:35 37.47736 -87.79748 20051 ft 389 kts 194°
2026-05-07 05:35 37.45044 -87.79960 20061 ft 388 kts 194°
2026-05-07 05:36 37.42361 -87.80168 20058 ft 389 kts 194°
2026-05-07 05:36 37.39663 -87.80376 20059 ft 388 kts 195°
2026-05-07 05:36 37.36912 -87.80589 20057 ft 393 kts 194°
2026-05-07 05:36 37.34233 -87.80794 20046 ft 389 kts 194°
2026-05-07 05:37 37.31538 -87.81004 20062 ft 388 kts 194°
2026-05-07 05:37 37.28823 -87.81208 20047 ft 388 kts 195°
2026-05-07 05:37 37.26109 -87.81422 20057 ft 393 kts 195°
2026-05-07 05:37 37.23412 -87.81628 20050 ft 391 kts 194°
2026-05-07 05:38 37.20671 -87.81843 20051 ft 388 kts 194°
2026-05-07 05:38 37.18001 -87.82045 20056 ft 388 kts 194°
2026-05-07 05:38 37.15282 -87.82253 20051 ft 386 kts 194°
2026-05-07 05:38 37.12591 -87.82455 20051 ft 389 kts 194°
2026-05-07 05:39 37.09906 -87.82668 20046 ft 392 kts 194°
2026-05-07 05:39 37.07175 -87.82875 20051 ft 387 kts 194°
2026-05-07 05:39 37.04488 -87.83083 20051 ft 391 kts 194°
2026-05-07 05:39 37.01747 -87.83295 20058 ft 395 kts 194°
2026-05-07 05:40 36.99034 -87.83492 20041 ft 385 kts 194°
2026-05-07 05:40 36.96340 -87.83708 20056 ft 391 kts 194°
2026-05-07 05:40 36.93637 -87.83910 20047 ft 391 kts 194°
2026-05-07 05:40 36.90920 -87.84119 20052 ft 392 kts 194°
2026-05-07 05:41 36.88238 -87.84318 20045 ft 386 kts 194°
2026-05-07 05:41 36.85536 -87.84528 20069 ft 392 kts 194°
2026-05-07 05:41 36.82807 -87.84738 20056 ft 392 kts 194°
2026-05-07 05:41 36.80074 -87.84943 20049 ft 392 kts 194°
2026-05-07 05:42 36.77342 -87.85153 20056 ft 395 kts 194°
2026-05-07 05:42 36.74623 -87.85357 20046 ft 389 kts 194°
2026-05-07 05:42 36.71915 -87.85567 20057 ft 389 kts 194°
2026-05-07 05:42 36.69210 -87.85770 20037 ft 391 kts 194°
2026-05-07 05:43 36.66483 -87.85978 20049 ft 392 kts 194°
2026-05-07 05:43 36.63747 -87.86181 20050 ft 390 kts 194°
2026-05-07 05:43 36.61034 -87.86385 20048 ft 390 kts 194°
2026-05-07 05:43 36.58300 -87.86601 20050 ft 395 kts 194°
2026-05-07 05:44 36.55619 -87.86794 20036 ft 390 kts 194°
2026-05-07 05:44 36.52891 -87.87011 20049 ft 395 kts 194°
2026-05-07 05:44 36.50139 -87.87211 20037 ft 390 kts 194°
2026-05-07 05:44 36.47442 -87.87415 20046 ft 393 kts 194°
2026-05-07 05:45 36.44712 -87.87623 20036 ft 395 kts 194°
2026-05-07 05:45 36.41942 -87.87833 20033 ft 395 kts 194°
2026-05-07 05:45 36.39212 -87.88034 20032 ft 389 kts 194°
2026-05-07 05:45 36.36497 -87.88240 20037 ft 394 kts 194°
2026-05-07 05:46 36.33794 -87.88441 20025 ft 392 kts 194°
2026-05-07 05:46 36.31041 -87.88654 20036 ft 397 kts 194°
2026-05-07 05:46 36.28256 -87.88866 20034 ft 404 kts 194°
2026-05-07 05:46 36.25478 -87.89066 20023 ft 395 kts 194°
2026-05-07 05:47 36.22718 -87.89276 20036 ft 401 kts 194°
2026-05-07 05:47 36.19948 -87.89486 20027 ft 401 kts 194°
2026-05-07 05:47 36.17153 -87.89689 20017 ft 399 kts 194°
2026-05-07 05:47 36.14376 -87.89902 20032 ft 404 kts 193°
2026-05-07 05:48 36.11572 -87.89910 20012 ft 405 kts 187°
2026-05-07 05:48 36.08786 -87.89613 20029 ft 405 kts 187°
2026-05-07 05:48 36.05946 -87.89362 20024 ft 405 kts 186°
2026-05-07 05:48 36.03139 -87.89077 20022 ft 406 kts 186°
2026-05-07 05:49 36.00305 -87.88801 20023 ft 409 kts 186°
2026-05-07 05:49 35.97469 -87.88513 20019 ft 410 kts 186°
2026-05-07 05:49 35.94672 -87.88224 20015 ft 405 kts 186°
2026-05-07 05:49 35.91855 -87.87948 20023 ft 409 kts 186°
2026-05-07 05:50 35.89023 -87.87656 20017 ft 410 kts 186°
2026-05-07 05:50 35.86162 -87.87367 20023 ft 408 kts 186°
2026-05-07 05:50 35.83362 -87.87083 20024 ft 408 kts 186°
2026-05-07 05:50 35.80519 -87.86799 20022 ft 408 kts 186°
2026-05-07 05:51 35.77683 -87.86512 20020 ft 412 kts 186°
2026-05-07 05:51 35.74860 -87.86222 20018 ft 407 kts 186°
2026-05-07 05:51 35.71987 -87.85936 20023 ft 407 kts 186°
2026-05-07 05:51 35.69179 -87.85650 20021 ft 409 kts 186°
2026-05-07 05:52 35.66353 -87.85366 20018 ft 408 kts 187°
2026-05-07 05:52 35.63528 -87.85084 20020 ft 410 kts 186°
2026-05-07 05:52 35.60675 -87.84798 20016 ft 410 kts 186°
2026-05-07 05:52 35.57839 -87.84508 20018 ft 408 kts 187°
2026-05-07 05:53 35.54997 -87.84225 20027 ft 409 kts 186°
2026-05-07 05:53 35.52162 -87.83939 20011 ft 411 kts 186°
2026-05-07 05:53 35.49310 -87.83656 20018 ft 412 kts 186°
2026-05-07 05:53 35.46457 -87.83367 20009 ft 410 kts 186°
2026-05-07 05:54 35.43621 -87.83084 20010 ft 407 kts 186°
2026-05-07 05:54 35.40760 -87.82796 20017 ft 411 kts 186°
2026-05-07 05:54 35.37911 -87.82511 20007 ft 408 kts 186°
2026-05-07 05:54 35.35083 -87.82230 20011 ft 414 kts 186°
2026-05-07 05:55 35.32223 -87.81943 20011 ft 413 kts 186°
2026-05-07 05:55 35.29399 -87.81657 19998 ft 409 kts 186°
2026-05-07 05:55 35.26533 -87.81377 20006 ft 413 kts 186°
2026-05-07 05:55 35.23651 -87.81091 20007 ft 415 kts 186°
2026-05-07 05:56 35.20786 -87.80799 20000 ft 411 kts 186°
2026-05-07 05:56 35.17934 -87.80521 20005 ft 416 kts 186°
2026-05-07 05:56 35.15051 -87.80228 19995 ft 411 kts 186°
2026-05-07 05:56 35.12197 -87.79948 20007 ft 415 kts 186°
2026-05-07 05:57 35.09337 -87.79664 20003 ft 411 kts 186°
2026-05-07 05:57 35.06466 -87.79377 20003 ft 415 kts 186°
2026-05-07 05:57 35.03599 -87.79092 19996 ft 412 kts 186°
2026-05-07 05:57 35.00742 -87.78812 20001 ft 415 kts 186°
2026-05-07 05:58 34.97848 -87.78526 20003 ft 416 kts 186°
2026-05-07 05:58 34.94981 -87.78236 19995 ft 413 kts 186°
2026-05-07 05:58 34.92144 -87.77958 19998 ft 412 kts 186°
2026-05-07 05:58 34.89247 -87.77673 19994 ft 416 kts 186°
2026-05-07 05:59 34.86390 -87.77392 19994 ft 415 kts 186°
2026-05-07 05:59 34.83479 -87.77104 20001 ft 417 kts 186°
2026-05-07 05:59 34.80602 -87.76818 19994 ft 413 kts 186°
2026-05-07 05:59 34.77736 -87.76539 20001 ft 416 kts 185°
2026-05-07 06:00 34.74839 -87.76253 20000 ft 418 kts 186°
2026-05-07 06:00 34.71957 -87.75964 19998 ft 412 kts 186°
2026-05-07 06:00 34.69078 -87.75684 20014 ft 418 kts 186°
2026-05-07 06:00 34.66205 -87.75400 19995 ft 417 kts 186°
2026-05-07 06:01 34.63280 -87.75115 19993 ft 415 kts 185°
2026-05-07 06:01 34.60402 -87.74831 19996 ft 415 kts 185°
2026-05-07 06:01 34.57555 -87.74550 19992 ft 411 kts 186°
2026-05-07 06:01 34.54683 -87.74269 19999 ft 417 kts 186°
2026-05-07 06:02 34.51755 -87.73988 19988 ft 416 kts 185°
2026-05-07 06:02 34.48883 -87.73703 19983 ft 414 kts 185°
2026-05-07 06:02 34.46008 -87.73422 19986 ft 417 kts 185°
2026-05-07 06:02 34.43100 -87.73138 19987 ft 417 kts 185°
2026-05-07 06:03 34.40219 -87.72853 19981 ft 417 kts 185°
2026-05-07 06:03 34.37311 -87.72572 19987 ft 420 kts 185°
2026-05-07 06:03 34.34404 -87.72289 19989 ft 419 kts 185°
2026-05-07 06:03 34.31530 -87.72000 19969 ft 413 kts 185°
2026-05-07 06:04 34.28635 -87.71726 19984 ft 418 kts 185°
2026-05-07 06:04 34.25729 -87.71445 19982 ft 416 kts 185°
2026-05-07 06:04 34.22842 -87.71162 19976 ft 418 kts 185°
2026-05-07 06:04 34.19938 -87.70881 19976 ft 421 kts 185°
2026-05-07 06:05 34.17003 -87.70597 19982 ft 426 kts 185°
2026-05-07 06:05 34.14071 -87.70312 19972 ft 425 kts 185°
2026-05-07 06:05 34.11128 -87.70024 19971 ft 426 kts 185°
2026-05-07 06:05 34.08127 -87.69732 19979 ft 429 kts 185°
2026-05-07 06:06 34.05204 -87.69447 19970 ft 423 kts 185°
2026-05-07 06:06 34.02267 -87.69146 19961 ft 416 kts 186°
2026-05-07 06:06 33.99437 -87.69222 19970 ft 404 kts 195°
2026-05-07 06:06 33.96601 -87.69596 19973 ft 411 kts 194°
2026-05-07 06:07 33.93733 -87.69849 19974 ft 407 kts 193°
2026-05-07 06:07 33.90931 -87.70094 19961 ft 406 kts 194°
2026-05-07 06:07 33.88093 -87.70332 19981 ft 412 kts 193°
2026-05-07 06:07 33.85262 -87.70553 19957 ft 404 kts 193°
2026-05-07 06:08 33.82417 -87.70781 19974 ft 410 kts 193°
2026-05-07 06:08 33.79560 -87.71007 19968 ft 413 kts 192°
2026-05-07 06:08 33.76689 -87.71227 19960 ft 413 kts 193°
2026-05-07 06:08 33.73828 -87.71445 19969 ft 409 kts 192°
2026-05-07 06:09 33.70996 -87.71667 19963 ft 412 kts 193°
2026-05-07 06:09 33.68107 -87.71889 19971 ft 414 kts 193°
2026-05-07 06:09 33.65280 -87.72110 19968 ft 410 kts 193°
2026-05-07 06:09 33.62392 -87.72333 19957 ft 408 kts 192°
2026-05-07 06:10 33.59549 -87.72544 19963 ft 412 kts 192°
2026-05-07 06:10 33.56664 -87.72775 19966 ft 412 kts 192°
2026-05-07 06:10 33.53820 -87.72991 19961 ft 411 kts 192°
2026-05-07 06:10 33.50962 -87.73213 19957 ft 413 kts 193°
2026-05-07 06:11 33.48081 -87.73430 19967 ft 415 kts 193°
2026-05-07 06:11 33.45221 -87.73650 19954 ft 410 kts 192°
2026-05-07 06:11 33.42370 -87.73873 19960 ft 412 kts 192°
2026-05-07 06:11 33.39507 -87.74085 19949 ft 414 kts 192°
2026-05-07 06:12 33.36631 -87.74313 19958 ft 410 kts 193°
2026-05-07 06:12 33.33806 -87.74522 19953 ft 408 kts 193°
2026-05-07 06:12 33.30930 -87.74749 19967 ft 415 kts 192°
2026-05-07 06:12 33.28037 -87.74969 19953 ft 412 kts 192°
2026-05-07 06:13 33.25208 -87.75185 19947 ft 411 kts 192°
2026-05-07 06:13 33.22338 -87.75405 19952 ft 414 kts 192°
2026-05-07 06:13 33.19451 -87.75629 19954 ft 415 kts 192°
2026-05-07 06:13 33.16542 -87.75846 19939 ft 419 kts 192°
2026-05-07 06:14 33.13667 -87.76063 19942 ft 412 kts 192°
2026-05-07 06:14 33.10783 -87.76286 19959 ft 416 kts 192°
2026-05-07 06:14 33.07888 -87.76504 19940 ft 416 kts 192°
2026-05-07 06:14 33.05001 -87.76726 19951 ft 416 kts 192°
2026-05-07 06:15 33.02116 -87.76945 19950 ft 416 kts 192°
2026-05-07 06:15 32.99224 -87.77162 19941 ft 418 kts 192°
2026-05-07 06:15 32.96333 -87.77383 19939 ft 417 kts 192°
2026-05-07 06:15 32.93456 -87.77602 19938 ft 411 kts 192°
2026-05-07 06:16 32.90582 -87.77824 19940 ft 416 kts 192°
2026-05-07 06:16 32.87668 -87.78041 19951 ft 421 kts 192°
2026-05-07 06:16 32.84780 -87.78258 19934 ft 412 kts 192°
2026-05-07 06:16 32.81894 -87.78479 19942 ft 416 kts 192°
2026-05-07 06:17 32.79015 -87.78696 19948 ft 420 kts 192°
2026-05-07 06:17 32.76116 -87.78914 19932 ft 410 kts 192°
2026-05-07 06:17 32.73243 -87.79130 19942 ft 413 kts 192°
2026-05-07 06:17 32.70366 -87.79354 19954 ft 419 kts 192°
2026-05-07 06:18 32.67468 -87.79569 19921 ft 410 kts 192°
2026-05-07 06:18 32.64624 -87.79782 19950 ft 414 kts 192°
2026-05-07 06:18 32.61757 -87.79997 19941 ft 415 kts 192°
2026-05-07 06:18 32.58823 -87.80225 19947 ft 417 kts 192°
2026-05-07 06:19 32.55970 -87.80435 19932 ft 416 kts 192°
2026-05-07 06:19 32.53053 -87.80652 19943 ft 414 kts 192°
2026-05-07 06:19 32.50189 -87.80869 19938 ft 416 kts 192°
2026-05-07 06:19 32.47253 -87.81094 19944 ft 417 kts 191°
2026-05-07 06:20 32.44375 -87.81305 19931 ft 416 kts 192°
2026-05-07 06:20 32.41468 -87.81522 19941 ft 420 kts 191°
2026-05-07 06:20 32.38572 -87.81743 19925 ft 412 kts 192°
2026-05-07 06:20 32.35687 -87.81955 19937 ft 417 kts 192°
2026-05-07 06:21 32.32816 -87.82176 19938 ft 415 kts 191°
2026-05-07 06:21 32.29966 -87.82381 19926 ft 411 kts 191°
2026-05-07 06:21 32.27084 -87.82605 19937 ft 417 kts 192°
2026-05-07 06:21 32.24166 -87.82818 19937 ft 414 kts 191°
2026-05-07 06:22 32.21295 -87.83033 19926 ft 414 kts 191°
2026-05-07 06:22 32.15532 -87.83463 19936 ft 416 kts 192°
2026-05-07 06:22 32.12661 -87.83679 19929 ft 416 kts 191°
2026-05-07 06:23 32.09789 -87.83893 19928 ft 415 kts 191°
2026-05-07 06:23 32.06894 -87.84106 19939 ft 416 kts 191°
2026-05-07 06:23 32.03986 -87.84322 19930 ft 415 kts 192°
2026-05-07 06:23 32.01085 -87.84541 19932 ft 420 kts 191°
2026-05-07 06:24 31.98203 -87.84754 19923 ft 409 kts 191°
2026-05-07 06:24 31.95345 -87.84966 19935 ft 414 kts 191°
2026-05-07 06:24 31.92487 -87.85177 19937 ft 417 kts 191°
2026-05-07 06:24 31.89556 -87.85395 19933 ft 418 kts 191°
2026-05-07 06:25 31.86650 -87.85614 19940 ft 415 kts 191°
2026-05-07 06:25 31.83760 -87.85822 19935 ft 415 kts 191°
2026-05-07 06:25 31.80894 -87.86037 19945 ft 418 kts 191°
2026-05-07 06:25 31.77981 -87.86250 19937 ft 418 kts 191°
2026-05-07 06:26 31.75092 -87.86466 19945 ft 418 kts 191°
2026-05-07 06:26 31.72215 -87.86678 19934 ft 414 kts 191°
2026-05-07 06:26 31.69326 -87.86893 19950 ft 417 kts 191°
2026-05-07 06:26 31.66393 -87.87110 19941 ft 415 kts 191°
2026-05-07 06:27 31.63556 -87.87309 19926 ft 402 kts 191°
2026-05-07 06:27 31.60810 -87.87510 19901 ft 394 kts 192°
2026-05-07 06:27 31.58097 -87.87714 19902 ft 388 kts 192°
2026-05-07 06:27 31.55363 -87.87918 19910 ft 395 kts 192°
2026-05-07 06:28 31.52633 -87.88122 19918 ft 395 kts 192°
2026-05-07 06:28 31.49877 -87.88371 19916 ft 391 kts 195°
2026-05-07 06:28 31.47286 -87.89048 19914 ft 382 kts 206°
2026-05-07 06:28 31.44867 -87.90289 19919 ft 372 kts 215°
2026-05-07 06:29 31.42770 -87.91952 19920 ft 361 kts 224°
2026-05-07 06:29 31.40719 -87.93796 19535 ft 372 kts 221°
2026-05-07 06:29 31.38685 -87.95444 18861 ft 343 kts 220°
2026-05-07 06:29 31.36819 -87.96954 18361 ft 313 kts 221°
2026-05-07 06:30 31.35089 -87.98330 17855 ft 290 kts 221°
2026-05-07 06:30 31.33459 -87.99633 17381 ft 287 kts 221°
2026-05-07 06:30 31.31808 -88.00945 16926 ft 286 kts 220°
2026-05-07 06:30 31.30157 -88.02247 16462 ft 283 kts 221°
2026-05-07 06:31 31.28526 -88.03535 16003 ft 283 kts 221°
2026-05-07 06:31 31.26897 -88.04814 15524 ft 283 kts 220°
2026-05-07 06:31 31.25279 -88.06081 14889 ft 279 kts 220°
2026-05-07 06:31 31.23680 -88.07341 14285 ft 277 kts 220°
2026-05-07 06:32 31.22087 -88.08590 13686 ft 276 kts 220°
2026-05-07 06:32 31.20517 -88.09821 13089 ft 274 kts 220°
2026-05-07 06:32 31.18937 -88.11061 12504 ft 272 kts 220°
2026-05-07 06:32 31.17383 -88.12275 12263 ft 268 kts 220°
2026-05-07 06:33 31.15821 -88.13500 11966 ft 269 kts 220°
2026-05-07 06:33 31.14257 -88.14724 11642 ft 267 kts 219°
2026-05-07 06:33 31.12704 -88.15942 11377 ft 271 kts 219°
2026-05-07 06:33 31.11122 -88.17177 11110 ft 275 kts 219°
2026-05-07 06:34 31.09520 -88.18431 10828 ft 276 kts 219°
2026-05-07 06:34 31.07999 -88.19608 10471 ft 251 kts 219°
2026-05-07 06:34 31.06624 -88.20676 10176 ft 226 kts 220°
2026-05-07 06:34 31.05372 -88.21652 9907 ft 206 kts 220°
2026-05-07 06:35 31.04236 -88.22537 9666 ft 188 kts 220°
2026-05-07 06:35 31.03170 -88.23361 9514 ft 180 kts 221°
2026-05-07 06:35 31.02089 -88.24212 9492 ft 194 kts 221°
2026-05-07 06:35 31.00973 -88.25082 9283 ft 192 kts 220°
2026-05-07 06:36 30.99871 -88.25938 9063 ft 187 kts 220°
2026-05-07 06:36 30.98800 -88.26771 8850 ft 184 kts 220°
2026-05-07 06:36 30.97732 -88.27605 8655 ft 185 kts 220°
2026-05-07 06:36 30.96657 -88.28445 8465 ft 186 kts 220°
2026-05-07 06:37 30.95589 -88.29282 8284 ft 182 kts 220°
2026-05-07 06:37 30.94555 -88.30083 8106 ft 175 kts 220°
2026-05-07 06:37 30.93565 -88.30854 7886 ft 170 kts 220°
2026-05-07 06:37 30.92590 -88.31616 7687 ft 164 kts 220°
2026-05-07 06:38 30.91641 -88.32356 7519 ft 164 kts 220°
2026-05-07 06:38 30.90692 -88.33098 7365 ft 164 kts 220°
2026-05-07 06:38 30.89735 -88.33843 7193 ft 165 kts 220°
2026-05-07 06:38 30.88791 -88.34580 7037 ft 164 kts 219°
2026-05-07 06:39 30.87837 -88.35323 6861 ft 164 kts 219°
2026-05-07 06:39 30.86890 -88.36060 6682 ft 164 kts 219°
2026-05-07 06:39 30.85974 -88.36839 6478 ft 160 kts 232°
2026-05-07 06:39 30.85598 -88.38005 6295 ft 161 kts 272°
2026-05-07 06:40 30.86158 -88.39191 6228 ft 182 kts 314°
2026-05-07 06:40 30.87419 -88.39676 6164 ft 209 kts 355°
2026-05-07 06:40 30.88819 -88.39105 6113 ft 224 kts 37°
2026-05-07 06:40 30.89717 -88.37620 6078 ft 228 kts 78°
2026-05-07 06:41 30.89731 -88.35839 5923 ft 219 kts 117°
2026-05-07 06:41 30.88930 -88.34476 5620 ft 198 kts 156°
2026-05-07 06:41 30.87726 -88.33993 5427 ft 172 kts 182°
2026-05-07 06:41 30.86545 -88.33811 5085 ft 175 kts 179°
2026-05-07 06:42 30.85774 -88.33607 4862 ft 178 kts 174°
2026-05-07 06:42 30.85052 -88.33348 4648 ft 178 kts 171°
2026-05-07 06:42 30.83872 -88.33093 4168 ft 171 kts 183°
2026-05-07 06:42 30.82714 -88.33016 3789 ft 161 kts 185°
2026-05-07 06:43 30.81617 -88.32870 3395 ft 160 kts 177°
2026-05-07 06:43 30.80541 -88.32468 2761 ft 170 kts 166°
2026-05-07 06:43 30.79459 -88.31880 1949 ft 174 kts 160°
2026-05-07 06:43 30.78397 -88.31307 1387 ft 161 kts 162°
2026-05-07 06:44 30.77441 -88.30824 1159 ft 142 kts 162°
2026-05-07 06:44 30.76536 -88.30321 822 ft 145 kts 156°
2026-05-07 06:44 30.75662 -88.29761 738 ft 141 kts 155°
2026-05-07 06:44 30.74839 -88.29137 700 ft 141 kts 149°
2026-05-07 06:45 30.74048 -88.28472 714 ft 139 kts 149°
2026-05-07 06:45 30.73276 -88.27812 542 ft 136 kts 151°
2026-05-07 06:45 30.72446 -88.27182 547 ft 146 kts 150°
2026-05-07 06:45 30.71630 -88.26537 470 ft 135 kts 149°
2026-05-07 06:46 30.70897 -88.25913 267 ft 131 kts 150°
2026-05-07 06:46 30.70136 -88.25337 237 ft 131 kts 148°
2026-05-07 06:46 30.69423 -88.24741 210 ft 111 kts 146°
2026-05-07 06:46 30.68917 -88.24303 225 ft 72 kts 144°
2026-05-07 06:47 30.68622 -88.24057 225 ft 47 kts 146°
2026-05-07 06:47 30.68451 -88.23910 224 ft 6 kts 139°
2026-05-07 06:47 30.68443 -88.23903 224 ft 0 kts 140°
2026-05-07 06:47 30.68427 -88.23888 223 ft 5 kts 141°
2026-05-07 06:48 30.68382 -88.23856 222 ft 9 kts 169°
2026-05-07 06:48 30.68311 -88.23885 221 ft 11 kts 219°
2026-05-07 06:48 30.68301 -88.23896 221 ft 0 kts 224°
2026-05-07 06:48 30.68290 -88.23911 222 ft 4 kts 237°
2026-05-07 06:49 30.68277 -88.23955 222 ft 6 kts 268°
2026-05-07 06:49 30.68298 -88.23994 222 ft 5 kts 313°
2026-05-07 06:49 30.68339 -88.24034 222 ft 9 kts 321°
2026-05-07 06:49 30.68400 -88.24090 223 ft 12 kts 323°
2026-05-07 06:50 30.68448 -88.24132 224 ft 0 kts 322°
2026-05-07 06:50 30.68460 -88.24142 224 ft 3 kts 324°
2026-05-07 06:50 30.68493 -88.24166 225 ft 7 kts 332°
2026-05-07 06:50 30.68513 -88.24216 225 ft 8 kts 241°
2026-05-07 06:51 30.68473 -88.24251 224 ft 7 kts 202°
2026-05-07 06:51 30.68419 -88.24276 223 ft 8 kts 202°
2026-05-07 06:51 30.68357 -88.24320 222 ft 13 kts 216°
2026-05-07 06:51 30.68312 -88.24362 222 ft 5 kts 235°
2026-05-07 06:52 30.68303 -88.24394 222 ft 6 kts 275°
2026-05-07 06:52 30.68318 -88.24434 222 ft 5 kts 307°
2026-05-07 06:52 30.68327 -88.24469 222 ft 4 kts 267°
2026-05-07 06:52 30.68326 -88.24478 222 ft 0 kts 264°
2026-05-07 06:53 30.68326 -88.24486 222 ft 1 kts 276°
2026-05-07 06:53 30.68326 -88.24493 222 ft 0 kts 262°
2026-05-07 06:53 30.68324 -88.24498 222 ft 0 kts 253°
2026-05-07 06:53 30.68324 -88.24500 222 ft 0 kts 252°